This demonstration page uses our WeatherBlox Daily Observations layout. Learn more.

Left ArrowRight Arrow

Hourly Observations for October 12, 2022

Temp ( °F °C ) Dew Point ( °F °C ) Humidity (%) Winds ( mph kmh ) Pressure ( in mb ) Visibility ( mi km ) Precip ( " mm )
12:15 am 00:15 Clear 54 12 48 9 82 82 SSW 5 7 30.30 1026 10 16 0.00 0.00
12:35 am 00:35 Clear 54 12 48 9 82 82 S 6 9 30.30 1026 10 16 0.00 0.00
12:55 am 00:55 Clear 54 12 48 9 82 82 S 6 9 30.29 1026 10 16 0.00 0.00
1:15 am 01:15 Clear 54 12 48 9 82 82 S 5 7 30.29 1026 10 16 0.00 0.00
1:35 am 01:35 Clear 54 12 48 9 82 82 S 3 6 30.29 1026 10 16 0.00 0.00
1:55 am 01:55 Clear 50 10 46 8 87 87 Calm 30.30 1026 10 16 0.00 0.00
2:15 am 02:15 Clear 50 10 46 8 87 87 S 6 9 30.30 1026 10 16 0.00 0.00
2:35 am 02:35 Clear 52 11 46 8 82 82 S 3 6 30.29 1026 10 16 0.00 0.00
2:55 am 02:55 Clear 48 9 46 8 93 93 S 3 6 30.29 1026 10 16 0.00 0.00
3:15 am 03:15 Clear 48 9 46 8 93 93 Calm 30.29 1026 10 16 0.00 0.00
3:35 am 03:35 Clear 46 8 46 8 100 100 Calm 30.28 1025 10 16 0.00 0.00
3:55 am 03:55 Clear 46 8 45 7 93 93 SSW 3 6 30.28 1025 10 16 0.00 0.00
4:15 am 04:15 Clear 45 7 45 7 100 100 Calm 30.27 1025 10 16 0.00 0.00
4:35 am 04:35 Clear 45 7 45 7 100 100 Calm 30.28 1025 10 16 0.00 0.00
4:55 am 04:55 Clear 45 7 45 7 100 100 Calm 30.28 1025 10 16 0.00 0.00
5:15 am 05:15 Clear 45 7 45 7 100 100 Calm 30.28 1025 10 16 0.00 0.00
5:35 am 05:35 Clear 45 7 45 7 100 100 Calm 30.28 1025 10 16 0.00 0.00
5:55 am 05:55 Clear 45 7 45 7 100 100 Calm 30.27 1025 10 16 0.00 0.00
6:15 am 06:15 Clear 45 7 45 7 100 100 Calm 30.27 1025 10 16 0.00 0.00
6:35 am 06:35 Clear 43 6 43 6 100 100 Calm 30.27 1025 10 16 0.00 0.00
6:55 am 06:55 Clear 43 6 43 6 100 100 Calm 30.27 1025 10 16 0.00 0.00
7:15 am 07:15 Clear 43 6 43 6 100 100 Calm 30.27 1025 10 16 0.00 0.00
7:35 am 07:35 Sunny 43 6 43 6 100 100 Calm 30.27 1025 10 16 0.00 0.00
7:55 am 07:55 Sunny 45 7 45 7 100 100 Calm 30.26 1025 10 16 0.00 0.00
8:15 am 08:15 Sunny 46 8 45 7 93 93 Calm 30.27 1025 10 16 0.00 0.00
8:35 am 08:35 Sunny 48 9 48 9 100 100 Calm 30.26 1025 10 16 0.00 0.00
8:55 am 08:55 Sunny 50 10 48 9 93 93 S 3 6 30.26 1025 10 16 0.00 0.00
9:15 am 09:15 Sunny 50 10 50 10 100 100 S 5 7 30.26 1025 10 16 0.00 0.00
9:35 am 09:35 Sunny 52 11 50 10 94 94 Calm 30.26 1025 10 16 0.00 0.00
9:55 am 09:55 Sunny 55 13 52 11 88 88 S 3 6 30.25 1024 10 16 0.00 0.00
10:15 am 10:15 Sunny 57 14 52 11 82 82 S 3 6 30.24 1024 10 16 0.00 0.00
10:35 am 10:35 Sunny 59 15 52 11 77 77 SW 5 7 30.24 1024 10 16 0.00 0.00
10:55 am 10:55 Sunny 63 17 52 11 68 68 S 6 9 30.23 1024 10 16 0.00 0.00
11:15 am 11:15 Sunny 64 18 54 12 68 68 SSW 9 15 30.22 1024 10 16 0.00 0.00
11:35 am 11:35 Sunny 64 18 54 12 68 68 S 8 13 30.22 1023 10 16 0.00 0.00
11:55 am 11:55 Sunny 66 19 54 12 64 64 S 9 15 30.20 1023 10 16 0.00 0.00
12:15 pm 12:15 Sunny 68 20 52 11 56 56 S 15 24 30.20 1023 10 16 0.00 0.00
12:35 pm 12:35 Sunny 68 20 52 11 56 56 S 12 19 30.19 1022 10 16 0.00 0.00
12:55 pm 12:55 Sunny 68 20 52 11 56 56 SSW 9 15 30.18 1022 10 16 0.00 0.00
1:15 pm 13:15 Sunny 70 21 52 11 53 53 S 13 20 30.17 1022 10 16 0.00 0.00
1:35 pm 13:35 Sunny 72 22 54 12 53 53 SSW 13 20 30.15 1021 10 16 0.00 0.00
1:55 pm 13:55 Sunny 72 22 54 12 53 53 S 13 20 30.13 1020 10 16 0.00 0.00
2:15 pm 14:15 Sunny 72 22 54 12 53 53 S 14 22 30.12 1020 10 16 0.00 0.00
2:35 pm 14:35 Sunny 72 22 54 12 53 53 S 17 28 30.10 1019 10 16 0.00 0.00
2:55 pm 14:55 Sunny 73 23 54 12 50 50 SSW 14 22 30.08 1018 10 16 0.00 0.00
3:15 pm 15:15 Sunny 73 23 54 12 50 50 S 15 24 30.07 1018 10 16 0.00 0.00
3:35 pm 15:35 Sunny 72 22 54 12 53 53 S 14 22 30.07 1018 10 16 0.00 0.00
3:55 pm 15:55 Sunny 72 22 55 13 57 57 SSW 15 24 30.07 1018 10 16 0.00 0.00
4:15 pm 16:15 Sunny 72 22 55 13 57 57 S 10 17 30.07 1018 10 16 0.00 0.00
4:35 pm 16:35 Partly Cloudy 70 21 55 13 60 60 S 12 19 30.07 1018 10 16 0.00 0.00
4:55 pm 16:55 Partly Cloudy 70 21 55 13 60 60 SSE 10 17 30.05 1018 10 16 0.00 0.00
5:15 pm 17:15 Partly Cloudy 70 21 55 13 60 60 S 13 20 30.05 1018 10 16 0.00 0.00
5:35 pm 17:35 Mostly Cloudy 70 21 55 13 60 60 SSE 9 15 30.05 1018 10 16 0.00 0.00
5:55 pm 17:55 Cloudy 70 21 55 13 60 60 SSE 5 7 30.04 1017 10 16 0.00 0.00
6:15 pm 18:15 Cloudy 68 20 55 13 64 64 S 10 17 30.04 1017 10 16 0.00 0.00
6:35 pm 18:35 Cloudy 68 20 57 14 68 68 S 8 13 30.04 1017 10 16 0.00 0.00
6:55 pm 18:55 Cloudy 68 20 57 14 68 68 S 10 17 30.05 1018 10 16 0.00 0.00
7:15 pm 19:15 Cloudy 68 20 57 14 68 68 S 8 13 30.05 1018 10 16 0.00 0.00
7:35 pm 19:35 Mostly Cloudy 68 20 55 13 64 64 SSE 7 11 30.04 1017 10 16 0.00 0.00
7:55 pm 19:55 Partly Cloudy 68 20 55 13 64 64 S 9 15 30.05 1018 10 16 0.00 0.00
8:15 pm 20:15 Mostly Cloudy 66 19 57 14 73 73 SSE 7 11 30.05 1018 10 16 0.00 0.00
8:35 pm 20:35 Cloudy 66 19 57 14 73 73 S 8 13 30.04 1017 10 16 0.00 0.00
8:55 pm 20:55 Cloudy 66 19 55 13 68 68 S 8 13 30.04 1017 10 16 0.00 0.00
9:15 pm 21:15 Partly Cloudy 64 18 55 13 73 73 S 10 17 30.04 1017 10 16 0.00 0.00
9:35 pm 21:35 Mostly Cloudy 64 18 55 13 73 73 S 7 11 30.04 1017 10 16 0.00 0.00
9:55 pm 21:55 Mostly Cloudy 64 18 55 13 73 73 S 7 11 30.04 1017 10 16 0.00 0.00
10:15 pm 22:15 Mostly Cloudy 63 17 55 13 77 77 S 6 9 30.03 1017 10 16 0.00 0.00
10:35 pm 22:35 Cloudy 64 18 55 13 73 73 S 6 9 30.02 1017 10 16 0.00 0.00
10:55 pm 22:55 Cloudy 64 18 55 13 73 73 S 8 13 30.02 1016 10 16 0.00 0.00
11:15 pm 23:15 Cloudy 64 18 55 13 73 73 SSE 10 17 30.02 1016 10 16 0.00 0.00
11:35 pm 23:35 Cloudy 64 18 57 14 77 77 S 8 13 30.02 1016 10 16 0.00 0.00
11:55 pm 23:55 Cloudy 64 18 55 13 73 73 S 7 11 30.02 1016 10 16 0.00 0.00

Powered by AerisWeather